Regional Weather Roundup
Issued by NWS

Home | Current Version | Previous Version | Text Only | Print | Product List | Glossary On
Versions: 1 2 3 4 5 6 7 8 9 10 11 12 13 14 15 16 17 18 19 20 21 22 23 24 25 26 27 28 29 30 31 32 33 34 35 36 37 38 39 40 41 42 43 44 45 46 47 48 49 50
000
ASUS43 KTOP 130708
RWRKS

WEATHER ROUNDUP FOR KANSAS
NATIONAL WEATHER SERVICE GOODLAND KS
100 AM CST SAT FEB 13 2016

NOTE:  "FAIR" INDICATES FEW OR NO CLOUDS BELOW 12,000 FEET WITH NO
SIGNIFICANT WEATHER AND/OR OBSTRUCTIONS TO VISIBILITY.

KSZ001>006-013>018-027>032-041>047-130800-
NORTHWEST KANSAS

CITY           SKY/WX    TMP DP  RH WIND       PRES   REMARKS
GOODLAND       CLOUDY    28  26  92 S20       30.35F WCI  15
HAYS           CLOUDY    25  12  58 E8        30.49S
HILL CITY      CLOUDY    26  22  84 E10       30.48S WCI  16
RUSSELL        CLOUDY    24  17  74 E9        30.49S
$$

KSZ061>065-074>080-084>089-130800-
SOUTHWEST KANSAS

CITY           SKY/WX    TMP DP  RH WIND       PRES   REMARKS
DODGE CITY     CLOUDY    24  21  88 E7        30.42F
ELKHART          N/A     28  20  72 SE13        N/A  WCI  17
GARDEN CITY    CLOUDY    24  22  91 E8        30.39F
GREAT BEND     CLOUDY    27  16  63 E7        30.49F
LIBERAL        CLOUDY    28  21  74 E9        30.37F
PRATT          CLOUDY    24  19  81 E6        30.47F
$$

KSZ066>073-081>083-090>101-130800-
SOUTHEAST KANSAS

CITY           SKY/WX    TMP DP  RH WIND       PRES   REMARKS
CHANUTE        CLOUDY    28  11  48 NE13      30.56R WCI  17
COFFEYVILLE    CLOUDY    31  15  52 NE10      30.55R WCI  22
HUTCHINSON     CLOUDY    29  16  58 NE7       30.51S
MEDICINE LODGE   N/A     29  22  75 E7        30.48S
NEWTON         CLOUDY    27  12  54 NE12      30.52S WCI  16
PARSONS        CLOUDY    30  14  51 NE8       30.56R
WICHITA INTL   CLOUDY    31  16  54 NE13      30.50F WCI  21
WICHITA JABRA  CLOUDY    29  15  56 NE9       30.50F
WICHITA MCCONL CLOUDY    30  16  55 NE13      30.50F WCI  20
WINFIELD       CLOUDY    32  16  51 E10       30.51F WCI  24
$$

KSZ007>012-019>026-033>040-048>060-102>105-130800-
NORTHEAST KANSAS

CITY           SKY/WX    TMP DP  RH WIND       PRES   REMARKS
CONCORDIA      CLOUDY    22  14  71 E10       30.55F WCI  11
EMPORIA        CLOUDY    24  10  55 NE13      30.55F WCI  12
LAWRENCE       CLOUDY    21   7  54 NE8       30.62R
MANHATTAN      CLOUDY    23  11  60 NE12      30.59R WCI  12
MARYSVILLE     CLOUDY    19   9  63 E7        30.58F
OLATHE IND     CLOUDY    20   6  55 N9        30.59S
OLATHE EXE     CLOUDY    20   5  52 N7        30.58S
SALINA         CLOUDY    27  13  55 NE10      30.55F WCI  17
TOPEKA BILLARD CLOUDY    21   4  47 N9        30.62R
TOPEKA FORBES  MOCLDY    22   5  48 NE8       30.60R
$$



USA.gov is the U.S. government's official web portal to all federal, state and local government web resources and services.